Tracking 21607 objects as of 26-Oct-2020
HD Live streaming from Space Station
objects crossing your sky now

COSMOS 1477

Track COSMOS 1477 now!
10-day predictions
COSMOS 1477 is classified as:


NORAD ID: 14175
Int'l Code: 1983-069E
Perigee: 1,468.3 km
Apogee: 1,471.4 km
Inclination: 74.0 °
Period: 115.2 minutes
Semi major axis: 7840 km
RCS: 0.6791 m2 (medium)
Launch date: July 6, 1983
Source: Commonwealth of Independent States (former USSR) (CIS)
Launch site: PLESETSK MISSILE AND SPACE COMPLEX (PKMTR)
aabbcc
Your satellite tracking list
Your tracking list is empty




NASA's NSSDC Master Catalog

Two Line Element Set (TLE):
1 14175U 83069E   20299.61268611 -.00000023 +00000-0 -49124-4 0  9998
2 14175 074.0255 175.9635 0001981 009.8427 014.3826 12.50418100703015
Source of the keplerian elements: AFSPC